EHI
4 4 4 3 2 2 2 1 0 0 0 0 0 0 0 0 0 0 0 0 0 0 0 0 0 0 0 0 0 0 0 0 0 0 0 0 0 0 0 0 0 0 0
2 2 1 1 1 1 1 0 0 0 0 0 0 0 0 0 0 0 0 0 0 0 0 0 0 0 0 0 0 0 0 0 0 0 0 0 0 0 0 0 0 0 0
0 0 0 0 0 0 0 0 0 0 0 0 0 0 0 0 0 0 0 0 0 0 0 0 0 0 0 0 0 0 0 0 0 0 0 0 0 0 0 0 0 0 0
0 0 0 0 0 0 0 0 0 0 0 0 0 0 0 0 0 0 0 0 0 0 0 0 0 0 0 0 0 0 0 0 0 0 0 0 0 0 0 0 0 0 0
0 0 0 0 0 0 0 0 0 0 0 0 0 0 0 0 0 0 0 0 0 0 0 0 0 0 0 0 0 0 0 0 0 0 0 0 0 0 0 0 0 0 0
0 0 0 0 0 0 0 0 0 0 0 0 0 0 0 0 0 0 0 0 0 0 0 0 0 0 0 0 0 0 0 0 0 0 0 0 0 0 0 0 0 0 0
0 0 0 0 0 0 0 0 0 0 0 0 0 0 0 0 0 0 0 0 0 0 0 0 0 0 0 0 0 0 0 0 0 0 0 0 0 0 0 0 0 0 0
0 0 0 0 0 0 0 0 0 0 0 0 0 0 0 0 0 0 0 0 0 0 0 0 0 0 0 0 0 0 0 0 0 0 0 0 0 0 0 0 0 0 0
0 0 0 0 0 0 0 0 0 0 0 0 0 0 0 0 0 0 0 0 0 0 0 0 0 0 0 0 0 0 0 0 0 0 0 0 0 0 0 0 0 0 0
0 0 0 0 0 0 0 0 0 0 0 0 0 0 0 0 0 0 0 0 0 0 0 0 0 0 0 0 0 0 0 0 0 0 0 0 0 0 0 0 0 0 0
0 0 0 0 0 0 0 0 0 0 0 0 0 0 0 0 0 0 0 0 0 0 0 0 0 0 0 0 0 0 0 0 0 0 0 0 0 0 0 0 0 0 0
0 0 0 0 0 0 0 0 0 0 0 0 0 0 0 0 0 0 0 0 0 0 0 0 0 0 0 0 0 0 0 0 0 0 0 0 0 0 0 0 0 0 0
0 0 0 0 0 0 0 0 0 0 0 0 0 0 0 0 0 0 0 0 0 0 0 0 0 0 0 0 0 0 0 0 0 0 0 0 0 0 0 0 0 0 0
0 0 0 0 0 0 0 0 0 0 0 0 0 0 0 0 0 0 0 0 0 0 0 0 0 0 0 0 0 0 0 0 0 0 0 0 0 0 0 0 0 0 0
0 0 0 0 0 0 0 0 0 0 0 0 0 0 0 0 0 0 0 0 0 0 0 0 0 0 0 0 0 0 0 0 0 0 0 0 0 0 0 0 0 0 0
0 0 0 0 0 0 0 0 0 0 0 0 0 0 0 0 0 0 0 0 0 0 0 0 0 0 0 0 0 0 0 0 0 0 0 0 0 0 0 0 0 0 0
0 0 0 0 0 0 0 0 0 0 0 0 0 0 0 0 0 0 0 0 0 0 0 0 0 0 0 0 0 0 0 0 0 0 0 0 0 0 0 0 0 0 0
0 0 0 0 0 0 0 0 0 0 0 0 0 0 0 0 0 0 0 0 0 0 0 0 0 0 0 0 0 0 0 0 0 0 0 0 0 0 0 0 0 0 0
0 0 0 0 0 0 0 0 0 0 0 0 0 0 0 0 0 0 0 0 0 0 0 0 0 0 0 0 0 0 0 0 0 0 0 0 0 0 0 0 0 0 0
0 0 0 0 0 0 0 0 0 0 0 0 0 0 0 0 0 0 0 0 0 0 0 0 0 0 0 0 0 0 0 0 0 0 0 0 0 0 0 0 0 0 0
0 0 0 0 0 0 0 0 0 0 0 0 0 0 0 0 0 0 0 0 0 0 0 0 0 0 0 0 0 0 0 0 0 0 0 0 0 0 0 0 0 0 0
0 0 0 0 0 0 0 0 0 0 0 0 0 0 0 0 0 0 0 0 0 0 0 0 0 0 0 0 0 0 0 0 0 0 0 0 0 0 0 0 0 0 0
0 0 0 0 0 0 0 0 0 0 0 0 0 0 0 0 0 0 0 0 0 0 0 0 0 0 0 0 0 0 0 0 0 0 0 0 0 0 0 0 0 0 0
0 0 0 0 0 0 0 0 0 0 0 0 0 0 0 0 0 0 0 0 0 0 0 0 0 0 0 0 0 0 0 0 0 0 0 0 0 0 0 0 0 0 0
0 0 0 0 0 0 0 0 0 0 0 0 0 0 0 0 0 0 0 0 0 0 0 0 0 0 0 0 0 0 0 0 0 0 0 0 0 0 0 0 0 0 0
0 0 0 0 0 0 0 0 0 0 0 0 0 0 0 0 0 0 0 0 0 0 0 0 0 0 0 0 0 0 0 0 0 0 0 0 0 0 0 0 0 0 0
Wind_Speed
4 4 4 4 4 5 4 4 3 3 3 2 1 1 1 2 2 2 3 5 4 4 4 4 4 5 4 4 4 3 3 3 4 3 1 2 4 6 5 6 8 6 6
3 3 4 4 4 4 5 4 4 4 4 4 3 3 2 2 2 3 4 4 3 3 3 4 5 5 6 4 4 4 4 4 4 5 3 3 5 6 7 6 7 8 7
2 3 3 4 4 4 4 4 4 4 4 5 4 4 4 4 4 4 3 4 4 4 4 5 6 6 6 6 5 4 4 5 4 4 4 3 4 5 6 5 6 4 7
1 2 3 3 3 3 4 4 3 3 3 4 4 4 5 6 8 8 6 4 4 4 5 5 6 6 6 7 6 6 5 5 4 4 3 3 4 5 5 4 3 2 2
2 3 3 2 2 2 3 3 2 3 5 4 4 5 6 6 8 9 7 6 5 5 5 4 5 5 4 4 5 6 7 5 5 3 3 3 3 5 5 4 3 1 0
3 3 3 2 3 3 2 2 2 3 3 3 4 6 7 7 9 11 10 5 5 5 5 4 4 6 6 5 3 3 6 6 6 4 2 1 1 2 3 3 3 2 1
3 3 3 4 5 5 5 5 5 4 4 4 4 5 6 6 10 12 14 5 5 5 5 6 7 8 8 7 5 1 3 8 8 6 7 6 4 3 2 3 3 3 2
3 4 4 4 4 4 4 5 5 4 4 4 4 5 5 6 9 12 14 3 5 6 6 6 6 7 10 9 5 5 5 6 7 6 5 5 5 5 3 2 2 2 2
4 4 4 4 4 3 3 3 3 3 4 4 4 5 5 5 10 11 12 2 3 5 6 7 7 7 12 14 8 7 6 3 4 6 5 4 4 4 3 2 2 1 1
4 4 3 3 3 2 2 2 1 1 2 3 5 5 6 6 10 13 13 4 2 2 4 5 10 9 11 13 7 7 7 7 8 3 1 2 2 2 3 3 2 1 0
4 4 3 2 2 2 2 1 0 0 1 3 4 5 6 6 8 12 13 6 6 4 3 4 5 10 11 11 8 4 5 7 7 5 1 2 2 2 2 3 3 2 2
4 3 3 1 2 3 2 2 1 1 1 2 3 4 4 4 7 8 10 10 8 6 5 5 4 9 10 10 7 9 12 9 5 6 5 3 3 2 2 2 2 1 1
4 3 2 2 2 2 2 2 2 2 2 2 3 3 3 3 4 6 6 7 8 4 3 3 5 7 8 6 6 10 9 5 4 4 4 3 1 0 1 1 2 1 1
4 4 3 2 2 2 2 2 3 3 3 3 4 3 3 4 4 5 5 5 5 5 5 5 6 4 3 4 6 5 4 4 4 3 4 4 4 3 2 0 1 2 2
4 4 3 3 3 3 3 3 3 4 3 3 3 3 3 3 1 2 3 4 5 5 7 6 4 3 2 2 2 3 4 5 5 5 4 3 4 4 4 2 1 2 1
4 5 4 4 4 4 5 4 2 2 4 3 2 2 3 3 3 3 4 6 8 7 5 5 5 3 3 2 2 3 3 3 4 5 5 6 5 4 4 3 2 2 2
4 4 4 5 6 5 6 6 6 4 3 4 5 4 3 4 5 6 7 8 10 7 4 6 5 3 2 1 2 2 2 2 2 3 5 6 6 6 5 4 3 3 3
6 6 5 5 6 7 7 7 7 8 8 7 8 9 8 8 9 9 7 6 7 5 5 5 2 1 1 1 2 2 2 2 2 2 3 4 5 6 6 5 4 4 3
6 5 6 5 5 5 5 6 5 5 4 5 8 7 9 10 12 12 7 5 7 5 3 3 4 4 4 3 3 3 4 3 3 3 2 3 4 4 5 5 5 6 4
4 2 3 4 6 6 5 5 3 2 2 1 2 6 7 6 5 4 4 5 4 3 3 4 4 4 4 4 4 4 5 5 5 5 4 4 3 4 5 6 5 5 4
8 8 8 6 7 6 5 4 3 2 2 1 1 5 3 2 4 4 3 2 3 4 4 4 4 4 4 4 4 6 7 6 6 7 7 6 6 5 5 5 5 6 5
7 7 9 8 7 7 5 4 4 4 4 3 2 5 5 3 4 3 2 2 3 2 2 2 3 3 4 5 5 5 5 6 6 7 7 7 7 7 7 6 6 6 6
9 8 8 9 8 6 5 5 5 5 5 4 4 2 5 4 3 2 2 2 1 1 2 1 2 3 2 2 3 4 5 5 5 6 7 7 7 7 7 7 8 7 6
11 11 10 9 9 8 8 8 8 7 6 5 4 3 3 2 3 3 2 1 2 2 1 1 2 3 3 2 1 1 3 4 5 6 8 8 8 7 6 7 7 8 7
11 11 11 10 9 8 8 8 8 7 5 4 4 4 5 4 4 3 2 2 2 2 3 3 2 3 4 4 2 3 6 5 3 4 6 7 7 7 6 7 6 7 7
12 12 11 9 9 9 8 8 7 6 5 4 4 5 4 4 4 4 3 2 2 2 2 3 4 5 5 4 3 8 8 5 3 0 4 6 8 6 6 6 8 7 7
Wind_Direction
71 64 55 66 80 79 62 52 44 29 12 16 3 312 289 276 277 278 274 272 272 278 292 306 317 316 314 316 311 291 269 243 245 259 203 152 138 140 146 141 144 158 162
72 82 74 63 59 70 67 48 39 27 9 7 349 331 315 306 287 280 288 303 308 321 335 344 342 345 349 337 322 304 289 263 243 252 226 180 173 156 161 165 160 178 175
62 104 96 85 72 63 62 47 33 24 19 11 359 356 353 353 354 343 324 322 336 -0 15 18 17 15 7 351 336 334 313 297 266 251 239 194 179 170 165 181 180 185 193
56 81 92 86 77 69 64 57 37 22 26 13 3 5 8 30 21 7 357 8 20 35 39 39 36 29 12 350 356 356 338 322 297 264 245 205 186 179 167 178 182 188 229
77 76 75 74 77 78 71 58 40 18 33 20 15 26 29 49 23 5 354 34 41 45 42 53 62 40 22 4 9 358 352 345 332 299 257 216 184 170 182 173 171 165 308
77 77 60 47 47 45 57 59 49 43 33 28 39 50 41 37 10 11 9 24 43 39 31 28 83 43 8 356 341 9 15 7 350 342 326 303 166 156 152 148 149 157 210
84 76 60 50 50 37 31 38 30 24 24 27 48 73 72 36 13 10 5 6 48 42 37 32 36 32 13 350 339 295 13 22 22 23 37 30 40 38 115 133 140 151 167
109 81 60 55 59 50 45 40 24 18 17 16 43 71 79 49 18 8 352 10 65 57 43 37 48 30 10 354 9 45 61 38 29 41 46 42 41 29 43 97 128 128 123
110 92 73 61 62 52 48 40 24 16 15 10 41 59 66 46 19 10 356 327 100 92 76 48 39 33 10 8 18 23 30 39 63 78 78 85 81 64 43 69 95 137 192
112 99 83 67 61 53 57 48 26 9 17 31 47 44 47 44 21 17 5 2 37 104 116 92 55 34 17 15 15 17 11 348 341 331 167 190 163 114 67 47 48 46 124
124 115 97 72 62 64 54 52 42 46 61 63 63 59 53 41 33 27 21 18 1 13 53 70 46 18 11 4 1 9 341 313 304 307 251 172 149 124 103 70 50 45 57
138 133 121 82 29 63 61 63 59 73 99 82 83 83 73 55 37 28 28 26 15 20 29 33 24 5 354 342 343 341 340 343 348 2 16 32 57 63 78 97 92 80 112
143 140 130 109 69 55 60 73 78 76 79 78 83 89 85 68 43 22 19 19 17 17 16 9 352 354 347 343 349 338 336 341 357 4 359 353 3 17 269 183 192 206 277
158 148 140 132 116 90 58 60 73 76 80 77 77 81 79 61 34 12 357 1 360 3 351 327 313 304 312 328 339 343 347 353 352 340 329 328 331 323 300 268 204 205 199
165 159 156 155 140 130 103 73 80 79 86 93 82 80 79 73 33 345 340 345 345 355 334 312 305 311 313 323 338 353 360 360 356 349 344 321 319 330 327 330 347 325 309
175 175 177 175 172 166 154 144 73 111 145 135 139 133 134 158 194 254 285 296 302 317 322 297 294 291 294 305 316 331 345 354 355 351 348 340 332 323 311 311 303 290 301
184 186 186 182 178 186 186 179 176 187 217 240 235 232 235 199 227 255 272 289 290 289 273 273 270 268 283 313 318 318 316 318 328 336 339 337 332 331 326 319 321 311 298
201 185 200 201 201 201 199 206 196 186 193 210 219 224 230 240 251 260 275 300 289 258 250 269 287 335 349 345 336 331 321 308 300 303 312 315 317 322 324 329 331 325 317
225 206 205 212 218 215 211 227 221 195 196 192 173 183 215 238 253 259 263 265 281 300 324 1 24 22 7 1 0 348 335 329 324 307 290 285 297 311 318 321 322 329 327
221 209 227 238 240 219 214 245 247 205 228 271 152 160 177 221 259 273 224 238 272 333 14 14 21 11 3 2 2 354 344 342 341 337 337 341 347 347 335 326 328 327 327
217 195 200 236 259 258 229 225 247 270 275 273 75 104 139 260 302 304 307 338 8 21 27 12 356 347 357 4 7 2 355 352 358 359 358 356 357 354 347 344 347 349 348
237 205 193 218 235 246 240 232 244 252 255 259 199 160 180 232 273 300 331 356 7 19 16 1 339 345 4 11 8 353 352 6 10 4 356 350 348 345 346 348 350 351 354
242 246 213 209 222 224 224 237 247 256 259 258 263 225 186 236 275 293 308 347 26 348 330 335 316 319 8 29 2 351 354 15 7 4 355 347 342 338 337 338 338 338 349
220 233 241 231 220 224 226 227 231 239 246 252 257 266 265 259 268 270 270 271 271 265 258 264 278 293 302 300 300 31 52 38 5 357 353 331 322 325 333 334 331 333 337
227 226 228 235 236 234 235 235 234 234 236 240 253 259 263 267 270 268 256 249 258 264 268 267 259 263 267 268 250 126 120 107 73 1 330 318 317 320 323 324 327 330 332
223 232 234 229 228 231 236 238 234 223 216 224 243 252 253 258 263 266 256 239 245 249 256 265 264 260 250 241 187 145 151 156 153 332 320 311 306 311 326 322 319 321 324